Time,TemperatureF,DewpointF,PressureIn,WindDirection,WindDirectionDegrees,WindSpeedMPH,WindSpeedGustMPH,Humidity,HourlyPrecipIn,Conditions,Clouds,dailyrainin,SoftwareType,DateUTC
2013-01-01 00:01:00,-8.6,-12.1,30.66,West,259,4.0,6.0,84,0.00,,---,0.00,VWS V13.01,2013-01-01 06:01:00,
2013-01-01 00:06:00,-8.6,-12.1,30.66,West,259,3.0,5.0,84,0.00,,---,0.00,VWS V13.01,2013-01-01 06:06:00,
2013-01-01 00:11:00,-8.7,-12.2,30.66,West,269,2.0,5.0,84,0.00,,---,0.00,VWS V13.01,2013-01-01 06:11:00,
2013-01-01 00:17:00,-8.8,-12.3,30.65,West,261,1.0,1.0,84,0.00,,---,0.00,VWS V13.01,2013-01-01 06:17:00,
2013-01-01 00:22:00,-8.9,-12.4,30.65,West,261,0.0,4.0,84,0.00,,---,0.00,VWS V13.01,2013-01-01 06:22:00,
2013-01-01 00:27:00,-9.0,-12.8,30.65,West,261,2.0,4.0,83,0.00,,---,0.00,VWS V13.01,2013-01-01 06:27:00,
2013-01-01 00:32:00,-9.0,-12.8,30.63,WSW,258,2.0,3.0,83,0.00,,---,0.00,VWS V13.01,2013-01-01 06:32:00,
2013-01-01 00:37:00,-9.1,-12.6,30.63,West,259,1.0,6.0,84,0.00,,---,0.00,VWS V13.01,2013-01-01 06:37:00,
2013-01-01 00:43:00,-9.1,-12.9,30.63,WSW,257,0.0,6.0,83,0.00,,---,0.00,VWS V13.01,2013-01-01 06:43:00,
2013-01-01 00:48:00,-9.0,-12.5,30.62,West,268,0.0,5.0,84,0.00,,---,0.00,VWS V13.01,2013-01-01 06:48:00,
2013-01-01 00:53:00,-8.9,-12.4,30.62,West,271,3.0,5.0,84,0.00,,---,0.00,VWS V13.01,2013-01-01 06:53:00,
2013-01-01 00:58:00,-8.9,-12.4,30.62,West,267,1.0,5.0,84,0.00,,---,0.00,VWS V13.01,2013-01-01 06:58:00,
2013-01-01 01:04:00,-9.0,-12.8,30.63,West,267,0.0,4.0,83,0.00,,---,0.00,VWS V13.01,2013-01-01 07:04:00,
2013-01-01 01:09:00,-9.1,-12.9,30.63,West,267,0.0,4.0,83,0.00,,---,0.00,VWS V13.01,2013-01-01 07:09:00,
2013-01-01 01:14:00,-9.3,-13.1,30.63,West,267,0.0,4.0,83,0.00,,---,0.00,VWS V13.01,2013-01-01 07:14:00,
2013-01-01 01:19:00,-9.5,-13.2,30.61,West,267,1.0,2.0,83,0.00,,---,0.00,VWS V13.01,2013-01-01 07:19:00,
2013-01-01 01:25:00,-9.8,-13.5,30.61,West,267,1.0,2.0,83,0.00,,---,0.00,VWS V13.01,2013-01-01 07:25:00,
2013-01-01 01:30:00,-9.9,-13.6,30.62,West,267,0.0,2.0,83,0.00,,---,0.00,VWS V13.01,2013-01-01 07:30:00,
2013-01-01 01:35:00,-10.0,-13.7,30.62,West,267,1.0,4.0,83,0.00,,---,0.00,VWS V13.01,2013-01-01 07:35:00,
2013-01-01 01:40:00,-10.0,-13.7,30.62,West,267,0.0,4.0,83,0.00,,---,0.00,VWS V13.01,2013-01-01 07:40:00,
2013-01-01 01:46:00,-10.0,-13.7,30.62,West,267,0.0,4.0,83,0.00,,---,0.00,VWS V13.01,2013-01-01 07:46:00,
2013-01-01 01:51:00,-9.9,-13.6,30.62,West,265,2.0,4.0,83,0.00,,---,0.00,VWS V13.01,2013-01-01 07:51:00,
2013-01-01 01:56:00,-9.8,-13.5,30.62,West,269,2.0,5.0,83,0.00,,---,0.00,VWS V13.01,2013-01-01 07:56:00,
2013-01-01 02:01:00,-9.3,-12.8,30.62,WNW,282,3.0,6.0,84,0.00,,---,0.00,VWS V13.01,2013-01-01 08:01:00,
2013-01-01 02:07:00,-8.7,-12.2,30.62,West,271,1.0,6.0,84,0.00,,---,0.00,VWS V13.01,2013-01-01 08:07:00,
2013-01-01 02:12:00,-8.2,-11.7,30.62,West,273,3.0,7.0,84,0.00,,---,0.00,VWS V13.01,2013-01-01 08:12:00,
2013-01-01 02:17:00,-7.8,-11.3,30.61,West,267,2.0,5.0,84,0.00,,---,0.00,VWS V13.01,2013-01-01 08:17:00,
2013-01-01 02:23:00,-7.8,-11.3,30.61,West,261,4.0,5.0,84,0.00,,---,0.00,VWS V13.01,2013-01-01 08:23:00,
2013-01-01 02:28:00,-8.0,-11.8,30.61,West,261,1.0,5.0,83,0.00,,---,0.00,VWS V13.01,2013-01-01 08:28:00,
2013-01-01 02:33:00,-8.2,-12.0,30.61,West,261,2.0,3.0,83,0.00,,---,0.00,VWS V13.01,2013-01-01 08:33:00,
2013-01-01 02:38:00,-8.2,-12.0,30.61,West,262,1.0,4.0,83,0.00,,---,0.00,VWS V13.01,2013-01-01 08:38:00,
2013-01-01 02:44:00,-7.9,-11.4,30.61,West,269,5.0,5.0,84,0.00,,---,0.00,VWS V13.01,2013-01-01 08:44:00,
2013-01-01 02:49:00,-7.7,-11.2,30.61,West,266,2.0,4.0,84,0.00,,---,0.00,VWS V13.01,2013-01-01 08:49:00,
2013-01-01 02:54:00,-7.8,-11.6,30.61,West,267,1.0,4.0,83,0.00,,---,0.00,VWS V13.01,2013-01-01 08:54:00,
2013-01-01 02:59:00,-8.3,-12.1,30.61,West,265,1.0,4.0,83,0.00,,---,0.00,VWS V13.01,2013-01-01 08:59:00,
2013-01-01 03:05:00,-8.8,-12.6,30.61,West,265,2.0,3.0,83,0.00,,---,0.00,VWS V13.01,2013-01-01 09:05:00,
2013-01-01 03:10:00,-9.1,-12.9,30.61,West,265,0.0,3.0,83,0.00,,---,0.00,VWS V13.01,2013-01-01 09:10:00,
2013-01-01 03:15:00,-9.3,-13.1,30.62,West,264,1.0,3.0,83,0.00,,---,0.00,VWS V13.01,2013-01-01 09:15:00,
2013-01-01 03:20:00,-9.2,-12.9,30.62,West,264,2.0,3.0,83,0.00,,---,0.00,VWS V13.01,2013-01-01 09:20:00,
2013-01-01 03:26:00,-9.1,-12.9,30.62,West,264,1.0,3.0,83,0.00,,---,0.00,VWS V13.01,2013-01-01 09:26:00,
2013-01-01 03:31:00,-9.1,-12.9,30.62,West,263,2.0,3.0,83,0.00,,---,0.00,VWS V13.01,2013-01-01 09:31:00,
2013-01-01 03:36:00,-9.0,-12.8,30.62,West,263,0.0,3.0,83,0.00,,---,0.00,VWS V13.01,2013-01-01 09:36:00,
2013-01-01 03:41:00,-9.2,-12.9,30.62,West,266,1.0,4.0,83,0.00,,---,0.00,VWS V13.01,2013-01-01 09:41:00,
2013-01-01 03:46:00,-9.4,-13.1,30.62,West,261,0.0,1.0,83,0.00,,---,0.00,VWS V13.01,2013-01-01 09:46:00,
2013-01-01 03:52:00,-9.6,-13.3,30.62,West,261,0.0,3.0,83,0.00,,---,0.00,VWS V13.01,2013-01-01 09:52:00,
2013-01-01 03:57:00,-9.8,-13.5,30.62,West,261,0.0,3.0,83,0.00,,---,0.00,VWS V13.01,2013-01-01 09:57:00,
2013-01-01 04:02:00,-9.8,-13.5,30.64,West,261,2.0,3.0,83,0.00,,---,0.00,VWS V13.01,2013-01-01 10:02:00,
2013-01-01 04:07:00,-9.8,-13.5,30.64,West,262,0.0,4.0,83,0.00,,---,0.00,VWS V13.01,2013-01-01 10:07:00,
2013-01-01 04:13:00,-9.8,-13.5,30.64,WSW,252,0.0,5.0,83,0.00,,---,0.00,VWS V13.01,2013-01-01 10:13:00,
2013-01-01 04:18:00,-9.9,-13.6,30.66,WSW,252,1.0,2.0,83,0.00,,---,0.00,VWS V13.01,2013-01-01 10:18:00,
2013-01-01 04:23:00,-10.0,-13.7,30.66,WSW,252,1.0,2.0,83,0.00,,---,0.00,VWS V13.01,2013-01-01 10:23:00,
2013-01-01 04:28:00,-10.1,-13.8,30.66,WSW,252,1.0,3.0,83,0.00,,---,0.00,VWS V13.01,2013-01-01 10:28:00,
2013-01-01 04:33:00,-10.2,-13.9,30.65,WSW,252,2.0,3.0,83,0.00,,---,0.00,VWS V13.01,2013-01-01 10:33:00,
2013-01-01 04:38:00,-10.4,-14.1,30.65,WSW,252,0.0,3.0,83,0.00,,---,0.00,VWS V13.01,2013-01-01 10:38:00,
2013-01-01 04:43:00,-10.6,-14.3,30.65,WSW,253,0.0,3.0,83,0.00,,---,0.00,VWS V13.01,2013-01-01 10:43:00,
2013-01-01 04:49:00,-10.8,-14.5,30.65,WSW,252,1.0,3.0,83,0.00,,---,0.00,VWS V13.01,2013-01-01 10:49:00,
2013-01-01 04:54:00,-10.9,-14.6,30.65,WSW,252,1.0,3.0,83,0.00,,---,0.00,VWS V13.01,2013-01-01 10:54:00,
2013-01-01 04:59:00,-11.0,-14.9,30.65,WSW,252,0.0,3.0,82,0.00,,---,0.00,VWS V13.01,2013-01-01 10:59:00,
2013-01-01 05:04:00,-11.1,-15.1,30.65,WSW,252,0.0,1.0,82,0.00,,---,0.00,VWS V13.01,2013-01-01 11:04:00,
2013-01-01 05:09:00,-11.2,-15.1,30.65,WSW,252,0.0,1.0,82,0.00,,---,0.00,VWS V13.01,2013-01-01 11:09:00,
2013-01-01 05:14:00,-11.3,-15.2,30.65,WSW,252,0.0,1.0,82,0.00,,---,0.00,VWS V13.01,2013-01-01 11:14:00,
2013-01-01 05:20:00,-11.3,-15.2,30.66,WSW,252,0.0,2.0,82,0.00,,---,0.00,VWS V13.01,2013-01-01 11:20:00,
2013-01-01 05:25:00,-11.3,-15.2,30.66,WSW,252,0.0,2.0,82,0.00,,---,0.00,VWS V13.01,2013-01-01 11:25:00,
2013-01-01 05:30:00,-11.3,-15.2,30.64,WSW,252,0.0,2.0,82,0.00,,---,0.00,VWS V13.01,2013-01-01 11:30:00,
2013-01-01 05:35:00,-11.4,-15.4,30.64,WSW,252,0.0,1.0,82,0.00,,---,0.00,VWS V13.01,2013-01-01 11:35:00,
2013-01-01 05:40:00,-11.5,-15.4,30.64,WSW,252,0.0,1.0,82,0.00,,---,0.00,VWS V13.01,2013-01-01 11:40:00,
2013-01-01 05:45:00,-11.6,-15.5,30.64,WSW,252,0.0,2.0,82,0.00,,---,0.00,VWS V13.01,2013-01-01 11:45:00,
2013-01-01 05:50:00,-11.5,-15.4,30.64,WSW,252,1.0,1.0,82,0.00,,---,0.00,VWS V13.01,2013-01-01 11:50:00,
2013-01-01 05:55:00,-11.5,-15.4,30.64,WSW,252,0.0,1.0,82,0.00,,---,0.00,VWS V13.01,2013-01-01 11:55:00,
2013-01-01 06:00:00,-11.5,-15.4,30.63,WSW,252,0.0,2.0,82,0.00,,---,0.00,VWS V13.01,2013-01-01 12:00:00,
2013-01-01 06:06:00,-11.3,-15.0,30.63,WSW,252,0.0,1.0,83,0.00,,---,0.00,VWS V13.01,2013-01-01 12:06:00,
2013-01-01 06:11:00,-11.2,-14.9,30.63,WSW,252,3.0,3.0,83,0.00,,---,0.00,VWS V13.01,2013-01-01 12:11:00,
2013-01-01 06:16:00,-11.0,-14.7,30.63,WSW,252,0.0,3.0,83,0.00,,---,0.00,VWS V13.01,2013-01-01 12:16:00,
2013-01-01 06:21:00,-10.8,-14.5,30.63,WSW,252,0.0,3.0,83,0.00,,---,0.00,VWS V13.01,2013-01-01 12:21:00,
2013-01-01 06:26:00,-10.8,-14.5,30.63,WSW,252,1.0,4.0,83,0.00,,---,0.00,VWS V13.01,2013-01-01 12:26:00,
2013-01-01 06:31:00,-10.8,-14.5,30.63,WSW,252,1.0,1.0,83,0.00,,---,0.00,VWS V13.01,2013-01-01 12:31:00,
2013-01-01 06:37:00,-10.8,-14.5,30.63,WSW,252,0.0,3.0,83,0.00,,---,0.00,VWS V13.01,2013-01-01 12:37:00,
2013-01-01 06:42:00,-10.8,-14.5,30.63,WSW,253,1.0,3.0,83,0.00,,---,0.00,VWS V13.01,2013-01-01 12:42:00,
2013-01-01 06:47:00,-10.9,-14.9,30.62,WSW,253,0.0,1.0,82,0.00,,---,0.00,VWS V13.01,2013-01-01 12:47:00,
2013-01-01 06:52:00,-11.0,-14.9,30.62,WSW,253,1.0,3.0,82,0.00,,---,0.00,VWS V13.01,2013-01-01 12:52:00,
2013-01-01 06:57:00,-11.2,-15.1,30.62,WSW,253,1.0,3.0,82,0.00,,---,0.00,VWS V13.01,2013-01-01 12:57:00,
2013-01-01 07:02:00,-11.2,-15.1,30.62,WSW,253,0.0,2.0,82,0.00,,---,0.00,VWS V13.01,2013-01-01 13:02:00,
2013-01-01 07:08:00,-11.3,-15.2,30.62,WSW,253,2.0,2.0,82,0.00,,---,0.00,VWS V13.01,2013-01-01 13:08:00,
2013-01-01 07:13:00,-11.3,-15.2,30.62,WSW,253,1.0,2.0,82,0.00,,---,0.00,VWS V13.01,2013-01-01 13:13:00,
2013-01-01 07:18:00,-11.2,-15.1,30.63,WSW,253,1.0,3.0,82,0.00,,---,0.00,VWS V13.01,2013-01-01 13:18:00,
2013-01-01 07:24:00,-11.2,-15.1,30.63,WSW,253,0.0,3.0,82,0.00,,---,0.00,VWS V13.01,2013-01-01 13:24:00,
2013-01-01 07:29:00,-11.2,-15.1,30.63,WSW,253,1.0,3.0,82,0.00,,---,0.00,VWS V13.01,2013-01-01 13:29:00,
2013-01-01 07:34:00,-11.2,-15.1,30.63,WSW,253,0.0,4.0,82,0.00,,---,0.00,VWS V13.01,2013-01-01 13:34:00,
2013-01-01 07:39:00,-11.2,-15.1,30.63,WSW,253,0.0,4.0,82,0.00,,---,0.00,VWS V13.01,2013-01-01 13:39:00,
2013-01-01 07:44:00,-11.2,-14.9,30.63,WSW,253,1.0,4.0,83,0.00,,---,0.00,VWS V13.01,2013-01-01 13:44:00,
2013-01-01 07:49:00,-10.9,-14.6,30.62,WSW,253,0.0,3.0,83,0.00,,---,0.00,VWS V13.01,2013-01-01 13:49:00,
2013-01-01 07:54:00,-10.8,-14.5,30.62,WSW,253,0.0,4.0,83,0.00,,---,0.00,VWS V13.01,2013-01-01 13:54:00,
2013-01-01 07:59:00,-10.6,-14.3,30.62,WSW,254,0.0,5.0,83,0.00,,---,0.00,VWS V13.01,2013-01-01 13:59:00,
2013-01-01 08:04:00,-10.4,-14.1,30.63,WSW,254,2.0,3.0,83,0.00,,---,0.00,VWS V13.01,2013-01-01 14:04:00,
2013-01-01 08:09:00,-10.2,-13.9,30.63,WSW,254,1.0,4.0,83,0.00,,---,0.00,VWS V13.01,2013-01-01 14:09:00,
2013-01-01 08:15:00,-9.9,-13.6,30.63,WSW,257,1.0,5.0,83,0.00,,---,0.00,VWS V13.01,2013-01-01 14:15:00,
2013-01-01 08:20:00,-9.8,-13.5,30.62,West,261,0.0,5.0,83,0.00,,---,0.00,VWS V13.01,2013-01-01 14:20:00,
2013-01-01 08:25:00,-9.7,-13.4,30.62,West,261,0.0,5.0,83,0.00,,---,0.00,VWS V13.01,2013-01-01 14:25:00,
2013-01-01 08:30:00,-9.5,-13.2,30.61,West,261,3.0,6.0,83,0.00,,---,0.00,VWS V13.01,2013-01-01 14:30:00,
2013-01-01 08:36:00,-9.3,-13.1,30.61,West,265,6.0,6.0,83,0.00,,---,0.00,VWS V13.01,2013-01-01 14:36:00,
2013-01-01 08:41:00,-9.0,-12.8,30.61,West,269,0.0,6.0,83,0.00,,---,0.00,VWS V13.01,2013-01-01 14:41:00,
2013-01-01 08:46:00,-8.8,-12.6,30.59,West,266,4.0,6.0,83,0.00,,---,0.00,VWS V13.01,2013-01-01 14:46:00,
2013-01-01 08:51:00,-8.5,-12.0,30.59,West,275,2.0,6.0,84,0.00,,---,0.00,VWS V13.01,2013-01-01 14:51:00,
2013-01-01 08:56:00,-8.2,-11.7,30.59,West,277,3.0,6.0,84,0.00,,---,0.00,VWS V13.01,2013-01-01 14:56:00,
2013-01-01 09:01:00,-7.9,-11.4,30.58,West,259,3.0,4.0,84,0.00,,---,0.00,VWS V13.01,2013-01-01 15:01:00,
2013-01-01 09:07:00,-7.4,-10.9,30.58,West,259,2.0,6.0,84,0.00,,---,0.00,VWS V13.01,2013-01-01 15:07:00,
2013-01-01 09:12:00,-6.8,-10.4,30.58,WSW,240,4.0,6.0,84,0.00,,---,0.00,VWS V13.01,2013-01-01 15:12:00,
2013-01-01 09:17:00,-6.2,-9.8,30.56,West,271,2.0,6.0,84,0.00,,---,0.00,VWS V13.01,2013-01-01 15:17:00,
2013-01-01 09:22:00,-5.7,-9.3,30.56,West,275,2.0,10.0,84,0.00,,---,0.00,VWS V13.01,2013-01-01 15:22:00,
2013-01-01 09:28:00,-5.1,-8.7,30.56,West,262,4.0,10.0,84,0.00,,---,0.00,VWS V13.01,2013-01-01 15:28:00,
2013-01-01 09:33:00,-4.6,-8.2,30.54,West,262,3.0,5.0,84,0.00,,---,0.00,VWS V13.01,2013-01-01 15:33:00,
2013-01-01 09:38:00,-4.1,-7.7,30.54,West,265,2.0,5.0,84,0.00,,---,0.00,VWS V13.01,2013-01-01 15:38:00,
2013-01-01 09:43:00,-3.9,-7.5,30.54,WSW,252,1.0,9.0,84,0.00,,---,0.00,VWS V13.01,2013-01-01 15:43:00,
2013-01-01 09:48:00,-3.4,-7.0,30.54,WSW,248,2.0,7.0,84,0.00,,---,0.00,VWS V13.01,2013-01-01 15:48:00,
2013-01-01 09:53:00,-3.1,-6.7,30.54,WSW,250,3.0,11.0,84,0.00,,---,0.00,VWS V13.01,2013-01-01 15:53:00,
2013-01-01 09:59:00,-3.0,-6.6,30.54,West,266,2.0,11.0,84,0.00,,---,0.00,VWS V13.01,2013-01-01 15:59:00,
2013-01-01 10:04:00,-2.6,-6.2,30.52,West,265,3.0,14.0,84,0.00,,---,0.00,VWS V13.01,2013-01-01 16:04:00,
2013-01-01 10:09:00,-2.4,-5.8,30.52,WNW,287,2.0,14.0,85,0.00,,---,0.00,VWS V13.01,2013-01-01 16:09:00,
2013-01-01 10:14:00,-2.0,-5.6,30.52,WSW,242,1.0,14.0,84,0.00,,---,0.00,VWS V13.01,2013-01-01 16:14:00,
2013-01-01 10:20:00,-2.0,-5.6,30.53,SW,234,5.0,15.0,84,0.00,,---,0.00,VWS V13.01,2013-01-01 16:20:00,
2013-01-01 10:25:00,-1.7,-5.1,30.53,West,277,6.0,15.0,85,0.00,,---,0.00,VWS V13.01,2013-01-01 16:25:00,
2013-01-01 10:30:00,-1.5,-5.2,30.53,WSW,257,6.0,15.0,84,0.00,,---,0.00,VWS V13.01,2013-01-01 16:30:00,
2013-01-01 10:36:00,-1.1,-4.5,30.53,West,266,3.0,11.0,85,0.00,,---,0.00,VWS V13.01,2013-01-01 16:36:00,
2013-01-01 10:41:00,-0.5,-3.9,30.53,WNW,284,4.0,11.0,85,0.00,,---,0.00,VWS V13.01,2013-01-01 16:41:00,
2013-01-01 10:46:00,-0.3,-3.7,30.50,West,274,4.0,11.0,85,0.00,,---,0.00,VWS V13.01,2013-01-01 16:46:00,
2013-01-01 10:51:00,0.3,-3.1,30.50,WNW,285,3.0,6.0,85,0.00,,---,0.00,VWS V13.01,2013-01-01 16:51:00,
2013-01-01 10:56:00,0.7,-2.7,30.50,West,273,7.0,9.0,85,0.00,,---,0.00,VWS V13.01,2013-01-01 16:56:00,
2013-01-01 11:02:00,0.6,-2.8,30.49,WNW,284,6.0,8.0,85,0.00,,---,0.00,VWS V13.01,2013-01-01 17:02:00,
2013-01-01 11:07:00,0.8,-2.6,30.49,NW,308,10.0,10.0,85,0.00,,---,0.00,VWS V13.01,2013-01-01 17:07:00,
2013-01-01 11:12:00,0.9,-2.5,30.49,West,276,13.0,16.0,85,0.00,,---,0.00,VWS V13.01,2013-01-01 17:12:00,
2013-01-01 11:17:00,1.0,-2.5,30.49,West,275,5.0,11.0,85,0.00,,---,0.00,VWS V13.01,2013-01-01 17:17:00,
2013-01-01 11:23:00,1.4,-2.0,30.49,WSW,257,3.0,11.0,85,0.00,,---,0.00,VWS V13.01,2013-01-01 17:23:00,
2013-01-01 11:28:00,1.8,-1.7,30.49,WSW,250,4.0,11.0,85,0.00,,---,0.00,VWS V13.01,2013-01-01 17:28:00,
2013-01-01 11:33:00,1.8,-1.7,30.46,West,270,4.0,7.0,85,0.00,,---,0.00,VWS V13.01,2013-01-01 17:33:00,
2013-01-01 11:38:00,2.2,-1.3,30.46,West,262,2.0,10.0,85,0.00,,---,0.00,VWS V13.01,2013-01-01 17:38:00,
2013-01-01 11:44:00,2.5,-1.0,30.46,WSW,246,6.0,12.0,85,0.00,,---,0.00,VWS V13.01,2013-01-01 17:44:00,
2013-01-01 11:49:00,3.1,-0.4,30.45,West,277,6.0,7.0,85,0.00,,---,0.00,VWS V13.01,2013-01-01 17:49:00,
2013-01-01 11:54:00,3.1,-0.6,30.45,WSW,254,3.0,13.0,84,0.00,,---,0.00,VWS V13.01,2013-01-01 17:54:00,
2013-01-01 11:59:00,3.6,-0.1,30.45,WSW,243,6.0,13.0,84,0.00,,---,0.00,VWS V13.01,2013-01-01 17:59:00,
2013-01-01 12:05:00,3.8,-0.2,30.42,SW,229,1.0,7.0,83,0.00,,---,0.00,VWS V13.01,2013-01-01 18:05:00,
2013-01-01 12:10:00,4.2,0.2,30.42,WNW,292,4.0,10.0,83,0.00,,---,0.00,VWS V13.01,2013-01-01 18:10:00,
2013-01-01 12:15:00,4.7,0.7,30.41,WSW,247,2.0,10.0,83,0.00,,---,0.00,VWS V13.01,2013-01-01 18:15:00,
2013-01-01 12:20:00,5.4,1.1,30.41,SW,229,7.0,8.0,82,0.00,,---,0.00,VWS V13.01,2013-01-01 18:20:00,
2013-01-01 12:26:00,5.4,0.9,30.41,West,268,5.0,10.0,81,0.00,,---,0.00,VWS V13.01,2013-01-01 18:26:00,
2013-01-01 12:31:00,5.7,1.1,30.37,West,269,2.0,10.0,81,0.00,,---,0.00,VWS V13.01,2013-01-01 18:31:00,
2013-01-01 12:36:00,6.1,1.0,30.37,West,281,5.0,7.0,79,0.00,,---,0.00,VWS V13.01,2013-01-01 18:36:00,
2013-01-01 12:41:00,6.2,0.8,30.37,SW,236,3.0,10.0,78,0.00,,---,0.00,VWS V13.01,2013-01-01 18:41:00,
2013-01-01 12:46:00,6.2,0.8,30.37,West,275,7.0,11.0,78,0.00,,---,0.00,VWS V13.01,2013-01-01 18:46:00,
2013-01-01 12:52:00,6.2,0.6,30.37,WNW,293,6.0,12.0,77,0.00,,---,0.00,VWS V13.01,2013-01-01 18:52:00,
2013-01-01 12:57:00,6.4,0.7,30.37,SSW,205,5.0,12.0,77,0.00,,---,0.00,VWS V13.01,2013-01-01 18:57:00,
2013-01-01 13:02:00,6.8,0.9,30.36,West,280,4.0,7.0,76,0.00,,---,0.00,VWS V13.01,2013-01-01 19:02:00,
2013-01-01 13:07:00,7.1,0.9,30.36,SSW,211,3.0,14.0,75,0.00,,---,0.00,VWS V13.01,2013-01-01 19:07:00,
2013-01-01 13:13:00,6.9,0.1,30.36,SW,223,3.0,15.0,73,0.00,,---,0.00,VWS V13.01,2013-01-01 19:13:00,
2013-01-01 13:18:00,7.5,0.7,30.35,WSW,246,9.0,15.0,73,0.00,,---,0.00,VWS V13.01,2013-01-01 19:18:00,
2013-01-01 13:23:00,7.6,0.8,30.35,WSW,254,3.0,17.0,73,0.00,,---,0.00,VWS V13.01,2013-01-01 19:23:00,
2013-01-01 13:28:00,7.9,0.8,30.35,WSW,240,3.0,17.0,72,0.00,,---,0.00,VWS V13.01,2013-01-01 19:28:00,
2013-01-01 13:34:00,8.1,0.7,30.33,West,276,7.0,13.0,71,0.00,,---,0.00,VWS V13.01,2013-01-01 19:34:00,
2013-01-01 13:39:00,8.3,0.9,30.33,West,279,5.0,13.0,71,0.00,,---,0.00,VWS V13.01,2013-01-01 19:39:00,
2013-01-01 13:44:00,8.7,1.2,30.33,West,267,6.0,13.0,71,0.00,,---,0.00,VWS V13.01,2013-01-01 19:44:00,
2013-01-01 13:49:00,8.8,1.3,30.32,WSW,243,6.0,15.0,71,0.00,,---,0.00,VWS V13.01,2013-01-01 19:49:00,
2013-01-01 13:55:00,9.0,1.8,30.32,West,261,2.0,15.0,72,0.00,,---,0.00,VWS V13.01,2013-01-01 19:55:00,
2013-01-01 14:00:00,9.5,2.0,30.31,West,275,8.0,15.0,71,0.00,,---,0.00,VWS V13.01,2013-01-01 20:00:00,
2013-01-01 14:05:00,9.8,2.3,30.31,West,261,5.0,10.0,71,0.00,,---,0.00,VWS V13.01,2013-01-01 20:05:00,
2013-01-01 14:11:00,9.9,2.1,30.31,West,275,7.0,12.0,70,0.00,,---,0.00,VWS V13.01,2013-01-01 20:11:00,
2013-01-01 14:16:00,9.9,2.1,30.30,WSW,252,6.0,13.0,70,0.00,,---,0.00,VWS V13.01,2013-01-01 20:16:00,
2013-01-01 14:21:00,10.0,2.5,30.30,West,263,2.0,10.0,71,0.00,,---,0.00,VWS V13.01,2013-01-01 20:21:00,
2013-01-01 14:26:00,10.3,2.5,30.30,West,264,5.0,11.0,70,0.00,,---,0.00,VWS V13.01,2013-01-01 20:26:00,
2013-01-01 14:32:00,10.1,2.6,30.30,WNW,286,9.0,12.0,71,0.00,,---,0.00,VWS V13.01,2013-01-01 20:32:00,
2013-01-01 14:37:00,9.7,2.5,30.30,West,277,4.0,14.0,72,0.00,,---,0.00,VWS V13.01,2013-01-01 20:37:00,
2013-01-01 14:42:00,9.4,2.5,30.30,West,270,5.0,16.0,73,0.00,,---,0.00,VWS V13.01,2013-01-01 20:42:00,
2013-01-01 14:47:00,8.7,2.4,30.32,West,271,17.0,20.0,75,0.00,,---,0.00,VWS V13.01,2013-01-01 20:47:00,
2013-01-01 14:53:00,8.3,2.6,30.32,WSW,249,4.0,20.0,77,0.00,,---,0.00,VWS V13.01,2013-01-01 20:53:00,
2013-01-01 14:58:00,8.1,2.7,30.32,West,275,5.0,20.0,78,0.00,,---,0.00,VWS V13.01,2013-01-01 20:58:00,
2013-01-01 15:03:00,8.1,3.0,30.32,SW,225,2.0,6.0,79,0.00,,---,0.00,VWS V13.01,2013-01-01 21:03:00,
2013-01-01 15:08:00,8.2,3.0,30.32,West,274,5.0,11.0,79,0.00,,---,0.00,VWS V13.01,2013-01-01 21:08:00,
2013-01-01 15:13:00,8.3,3.4,30.32,WNW,284,9.0,11.0,80,0.00,,---,0.00,VWS V13.01,2013-01-01 21:13:00,
2013-01-01 15:19:00,8.3,3.4,30.34,West,261,11.0,12.0,80,0.00,,---,0.00,VWS V13.01,2013-01-01 21:19:00,
2013-01-01 15:24:00,8.4,3.8,30.34,WSW,257,3.0,14.0,81,0.00,,---,0.00,VWS V13.01,2013-01-01 21:24:00,
2013-01-01 15:29:00,8.5,3.9,30.34,West,259,0.0,14.0,81,0.00,,---,0.00,VWS V13.01,2013-01-01 21:29:00,
2013-01-01 15:35:00,8.6,4.0,30.32,WNW,286,1.0,10.0,81,0.00,,---,0.00,VWS V13.01,2013-01-01 21:35:00,
2013-01-01 15:40:00,8.7,4.1,30.32,West,273,3.0,10.0,81,0.00,,---,0.00,VWS V13.01,2013-01-01 21:40:00,
2013-01-01 15:45:00,8.7,4.3,30.33,WNW,284,2.0,10.0,82,0.00,,---,0.00,VWS V13.01,2013-01-01 21:45:00,
2013-01-01 15:50:00,8.6,4.2,30.33,West,277,0.0,9.0,82,0.00,,---,0.00,VWS V13.01,2013-01-01 21:50:00,
2013-01-01 15:56:00,8.6,4.2,30.33,WNW,299,2.0,11.0,82,0.00,,---,0.00,VWS V13.01,2013-01-01 21:56:00,
2013-01-01 16:01:00,8.6,4.2,30.33,West,265,6.0,11.0,82,0.00,,---,0.00,VWS V13.01,2013-01-01 22:01:00,
2013-01-01 16:06:00,8.6,4.5,30.33,WNW,290,4.0,11.0,83,0.00,,---,0.00,VWS V13.01,2013-01-01 22:06:00,
2013-01-01 16:11:00,8.5,4.4,30.33,West,273,4.0,15.0,83,0.00,,---,0.00,VWS V13.01,2013-01-01 22:11:00,
2013-01-01 16:17:00,8.4,4.3,30.34,West,265,6.0,12.0,83,0.00,,---,0.00,VWS V13.01,2013-01-01 22:17:00,
2013-01-01 16:22:00,8.3,4.2,30.34,West,271,1.0,12.0,83,0.00,,---,0.00,VWS V13.01,2013-01-01 22:22:00,
2013-01-01 16:27:00,8.3,4.2,30.34,West,277,9.0,13.0,83,0.00,,---,0.00,VWS V13.01,2013-01-01 22:27:00,
2013-01-01 16:32:00,8.3,4.5,30.34,West,269,0.0,4.0,84,0.00,,---,0.00,VWS V13.01,2013-01-01 22:32:00,
2013-01-01 16:37:00,8.2,4.4,30.34,NW,314,6.0,12.0,84,0.00,,---,0.00,VWS V13.01,2013-01-01 22:37:00,
2013-01-01 16:43:00,8.2,4.4,30.34,West,265,9.0,13.0,84,0.00,,---,0.00,VWS V13.01,2013-01-01 22:43:00,
2013-01-01 16:48:00,8.3,4.5,30.34,WNW,288,5.0,8.0,84,0.00,,---,0.00,VWS V13.01,2013-01-01 22:48:00,
2013-01-01 16:53:00,8.3,4.5,30.34,West,280,6.0,14.0,84,0.00,,---,0.00,VWS V13.01,2013-01-01 22:53:00,
2013-01-01 16:58:00,8.3,4.5,30.34,WNW,300,4.0,14.0,84,0.00,,---,0.00,VWS V13.01,2013-01-01 22:58:00,
2013-01-01 17:04:00,8.2,4.4,30.35,West,279,8.0,12.0,84,0.00,,---,0.00,VWS V13.01,2013-01-01 23:04:00,
2013-01-01 17:09:00,8.2,4.4,30.35,WSW,254,3.0,12.0,84,0.00,,---,0.00,VWS V13.01,2013-01-01 23:09:00,
2013-01-01 17:14:00,8.2,4.6,30.35,WNW,286,3.0,12.0,85,0.00,,---,0.00,VWS V13.01,2013-01-01 23:14:00,
2013-01-01 17:19:00,8.1,4.5,30.35,West,277,2.0,11.0,85,0.00,,---,0.00,VWS V13.01,2013-01-01 23:19:00,
2013-01-01 17:25:00,8.1,4.5,30.35,SW,214,3.0,12.0,85,0.00,,---,0.00,VWS V13.01,2013-01-01 23:25:00,
2013-01-01 17:30:00,8.1,4.5,30.35,West,268,8.0,12.0,85,0.00,,---,0.00,VWS V13.01,2013-01-01 23:30:00,
2013-01-01 17:35:00,8.0,4.4,30.35,West,280,2.0,9.0,85,0.00,,---,0.00,VWS V13.01,2013-01-01 23:35:00,
2013-01-01 17:41:00,8.0,4.4,30.35,WNW,288,3.0,10.0,85,0.00,,---,0.00,VWS V13.01,2013-01-01 23:41:00,
2013-01-01 17:46:00,8.0,4.4,30.36,West,261,5.0,14.0,85,0.00,,---,0.00,VWS V13.01,2013-01-01 23:46:00,
2013-01-01 17:51:00,8.0,4.4,30.36,West,279,6.0,13.0,85,0.00,,---,0.00,VWS V13.01,2013-01-01 23:51:00,
2013-01-01 17:56:00,7.9,4.3,30.36,West,277,5.0,13.0,85,0.00,,---,0.00,VWS V13.01,2013-01-01 23:56:00,
2013-01-01 18:02:00,7.8,4.2,30.36,West,279,5.0,5.0,85,0.00,,---,0.00,VWS V13.01,2013-01-02 00:02:00,
2013-01-01 18:07:00,7.8,4.2,30.36,West,269,2.0,10.0,85,0.00,,---,0.00,VWS V13.01,2013-01-02 00:07:00,
2013-01-01 18:12:00,7.8,4.2,30.36,WNW,296,6.0,12.0,85,0.00,,---,0.00,VWS V13.01,2013-01-02 00:12:00,
2013-01-01 18:17:00,7.7,4.1,30.36,West,275,3.0,7.0,85,0.00,,---,0.00,VWS V13.01,2013-01-02 00:17:00,
2013-01-01 18:23:00,7.6,4.3,30.36,West,279,2.0,9.0,86,0.00,,---,0.00,VWS V13.01,2013-01-02 00:23:00,
2013-01-01 18:28:00,7.5,4.2,30.36,West,269,5.0,10.0,86,0.00,,---,0.00,VWS V13.01,2013-01-02 00:28:00,
2013-01-01 18:33:00,7.4,4.1,30.36,WNW,282,4.0,9.0,86,0.00,,---,0.00,VWS V13.01,2013-01-02 00:33:00,
2013-01-01 18:38:00,7.4,4.1,30.36,West,277,4.0,10.0,86,0.00,,---,0.00,VWS V13.01,2013-01-02 00:38:00,
2013-01-01 18:44:00,7.3,4.0,30.36,WNW,302,10.0,11.0,86,0.00,,---,0.00,VWS V13.01,2013-01-02 00:44:00,
2013-01-01 18:49:00,7.3,4.0,30.38,West,277,4.0,9.0,86,0.00,,---,0.00,VWS V13.01,2013-01-02 00:49:00,
2013-01-01 18:54:00,7.3,4.0,30.38,NW,315,7.0,12.0,86,0.00,,---,0.00,VWS V13.01,2013-01-02 00:54:00,
2013-01-01 18:59:00,7.3,4.0,30.38,West,279,1.0,12.0,86,0.00,,---,0.00,VWS V13.01,2013-01-02 00:59:00,
2013-01-01 19:05:00,7.3,4.0,30.37,SSW,213,3.0,10.0,86,0.00,,---,0.00,VWS V13.01,2013-01-02 01:05:00,
2013-01-01 19:10:00,7.3,4.0,30.37,West,272,2.0,10.0,86,0.00,,---,0.00,VWS V13.01,2013-01-02 01:10:00,
2013-01-01 19:15:00,7.3,4.0,30.37,WNW,292,3.0,10.0,86,0.00,,---,0.00,VWS V13.01,2013-01-02 01:15:00,
2013-01-01 19:20:00,7.3,4.0,30.37,West,274,2.0,8.0,86,0.00,,---,0.00,VWS V13.01,2013-01-02 01:20:00,
2013-01-01 19:26:00,7.3,4.0,30.37,West,273,0.0,8.0,86,0.00,,---,0.00,VWS V13.01,2013-01-02 01:26:00,
2013-01-01 19:31:00,7.3,4.0,30.37,West,267,2.0,8.0,86,0.00,,---,0.00,VWS V13.01,2013-01-02 01:31:00,
2013-01-01 19:36:00,7.3,4.0,30.37,West,262,4.0,5.0,86,0.00,,---,0.00,VWS V13.01,2013-01-02 01:36:00,
2013-01-01 19:41:00,7.3,4.0,30.37,WNW,283,4.0,10.0,86,0.00,,---,0.00,VWS V13.01,2013-01-02 01:41:00,
2013-01-01 19:46:00,7.4,4.3,30.37,West,265,1.0,4.0,87,0.00,,---,0.00,VWS V13.01,2013-01-02 01:46:00,
2013-01-01 19:52:00,7.4,4.3,30.37,West,266,1.0,6.0,87,0.00,,---,0.00,VWS V13.01,2013-01-02 01:52:00,
2013-01-01 19:57:00,7.4,4.3,30.37,West,281,2.0,9.0,87,0.00,,---,0.00,VWS V13.01,2013-01-02 01:57:00,
2013-01-01 20:02:00,7.4,4.3,30.37,West,271,4.0,4.0,87,0.00,,---,0.00,VWS V13.01,2013-01-02 02:02:00,
2013-01-01 20:07:00,7.4,4.3,30.37,West,270,0.0,5.0,87,0.00,,---,0.00,VWS V13.01,2013-01-02 02:07:00,
2013-01-01 20:13:00,7.5,4.4,30.37,West,273,0.0,5.0,87,0.00,,---,0.00,VWS V13.01,2013-01-02 02:13:00,
2013-01-01 20:18:00,7.5,4.4,30.34,West,269,1.0,5.0,87,0.00,,---,0.00,VWS V13.01,2013-01-02 02:18:00,
2013-01-01 20:23:00,7.6,4.6,30.34,West,268,0.0,5.0,87,0.00,,---,0.00,VWS V13.01,2013-01-02 02:23:00,
2013-01-01 20:28:00,7.6,4.6,30.34,West,265,1.0,5.0,87,0.00,,---,0.00,VWS V13.01,2013-01-02 02:28:00,
2013-01-01 20:34:00,7.6,4.6,30.33,West,273,0.0,4.0,87,0.00,,---,0.00,VWS V13.01,2013-01-02 02:34:00,
2013-01-01 20:39:00,7.6,4.6,30.33,West,276,1.0,6.0,87,0.00,,---,0.00,VWS V13.01,2013-01-02 02:39:00,
2013-01-01 20:44:00,7.6,4.8,30.33,WNW,302,2.0,9.0,88,0.00,,---,0.00,VWS V13.01,2013-01-02 02:44:00,
2013-01-01 20:49:00,7.7,4.9,30.33,West,281,2.0,6.0,88,0.00,,---,0.00,VWS V13.01,2013-01-02 02:49:00,
2013-01-01 20:55:00,7.7,4.9,30.33,WNW,283,4.0,7.0,88,0.00,,---,0.00,VWS V13.01,2013-01-02 02:55:00,
2013-01-01 21:00:00,7.8,5.0,30.33,West,280,3.0,7.0,88,0.00,,---,0.00,VWS V13.01,2013-01-02 03:00:00,
2013-01-01 21:05:00,7.8,5.0,30.33,West,273,0.0,4.0,88,0.00,,---,0.00,VWS V13.01,2013-01-02 03:05:00,
2013-01-01 21:10:00,7.8,5.0,30.33,West,273,0.0,4.0,88,0.00,,---,0.00,VWS V13.01,2013-01-02 03:10:00,
2013-01-01 21:16:00,7.8,5.0,30.30,West,273,0.0,4.0,88,0.00,,---,0.00,VWS V13.01,2013-01-02 03:16:00,
2013-01-01 21:21:00,7.9,5.1,30.30,West,273,0.0,3.0,88,0.00,,---,0.00,VWS V13.01,2013-01-02 03:21:00,
2013-01-01 21:26:00,7.9,5.1,30.30,West,273,1.0,4.0,88,0.00,,---,0.00,VWS V13.01,2013-01-02 03:26:00,
2013-01-01 21:31:00,7.9,5.1,30.29,West,275,2.0,3.0,88,0.00,,---,0.00,VWS V13.01,2013-01-02 03:31:00,
2013-01-01 21:37:00,7.9,5.1,30.29,West,275,0.0,3.0,88,0.00,,---,0.00,VWS V13.01,2013-01-02 03:37:00,
2013-01-01 21:42:00,8.0,5.2,30.29,West,275,2.0,3.0,88,0.00,,---,0.00,VWS V13.01,2013-01-02 03:42:00,
2013-01-01 21:47:00,8.0,5.2,30.30,West,274,0.0,2.0,88,0.00,,---,0.00,VWS V13.01,2013-01-02 03:47:00,
2013-01-01 21:53:00,8.0,5.2,30.30,West,274,0.0,3.0,88,0.00,,---,0.00,VWS V13.01,2013-01-02 03:53:00,
2013-01-01 21:58:00,8.1,5.5,30.30,West,271,1.0,3.0,89,0.00,,---,0.00,VWS V13.01,2013-01-02 03:58:00,
2013-01-01 22:03:00,8.1,5.5,30.30,West,269,3.0,4.0,89,0.00,,---,0.00,VWS V13.01,2013-01-02 04:03:00,
2013-01-01 22:08:00,8.1,5.5,30.30,West,267,0.0,5.0,89,0.00,,---,0.00,VWS V13.01,2013-01-02 04:08:00,
2013-01-01 22:14:00,8.1,5.5,30.30,West,267,2.0,5.0,89,0.00,,---,0.00,VWS V13.01,2013-01-02 04:14:00,
2013-01-01 22:19:00,8.2,5.6,30.27,West,267,0.0,3.0,89,0.00,,---,0.00,VWS V13.01,2013-01-02 04:19:00,
2013-01-01 22:24:00,8.3,6.0,30.27,West,267,1.0,3.0,90,0.00,,---,0.00,VWS V13.01,2013-01-02 04:24:00,
2013-01-01 22:29:00,8.3,6.0,30.27,West,267,4.0,4.0,90,0.00,,---,0.00,VWS V13.01,2013-01-02 04:29:00,
2013-01-01 22:35:00,8.4,6.1,30.27,West,266,1.0,4.0,90,0.00,,---,0.00,VWS V13.01,2013-01-02 04:35:00,
2013-01-01 22:40:00,8.4,6.1,30.27,WSW,250,1.0,5.0,90,0.00,,---,0.00,VWS V13.01,2013-01-02 04:40:00,
2013-01-01 22:45:00,8.4,6.1,30.27,WSW,249,0.0,5.0,90,0.00,,---,0.00,VWS V13.01,2013-01-02 04:45:00,
2013-01-01 22:50:00,8.5,6.2,30.27,WSW,250,2.0,4.0,90,0.00,,---,0.00,VWS V13.01,2013-01-02 04:50:00,
2013-01-01 22:56:00,8.5,6.2,30.27,WSW,254,0.0,6.0,90,0.00,,---,0.00,VWS V13.01,2013-01-02 04:56:00,
2013-01-01 23:00:00,8.6,6.3,30.27,West,265,5.0,6.0,90,0.00,,---,0.00,VWS V13.01,2013-01-02 05:00:00,
2013-01-01 23:01:00,8.6,6.3,30.25,West,263,4.0,6.0,90,0.00,,---,0.00,VWS V13.01,2013-01-02 05:01:00,
2013-01-01 23:02:00,8.6,6.3,30.25,West,259,1.0,3.0,90,0.00,,---,0.00,VWS V13.01,2013-01-02 05:02:00,
2013-01-01 23:03:00,8.7,6.4,30.25,West,259,2.0,5.0,90,0.00,,---,0.00,VWS V13.01,2013-01-02 05:03:00,
2013-01-01 23:09:00,8.7,6.4,30.25,West,260,0.0,5.0,90,0.00,,---,0.00,VWS V13.01,2013-01-02 05:09:00,
2013-01-01 23:14:00,8.8,6.5,30.25,West,260,0.0,5.0,90,0.00,,---,0.00,VWS V13.01,2013-01-02 05:14:00,
2013-01-01 23:19:00,8.9,6.6,30.24,West,260,0.0,2.0,90,0.00,,---,0.00,VWS V13.01,2013-01-02 05:19:00,
2013-01-01 23:25:00,8.9,6.6,30.24,WSW,258,1.0,4.0,90,0.00,,---,0.00,VWS V13.01,2013-01-02 05:25:00,
2013-01-01 23:30:00,9.0,6.7,30.24,WSW,258,0.0,4.0,90,0.00,,---,0.00,VWS V13.01,2013-01-02 05:30:00,
2013-01-01 23:35:00,9.1,6.8,30.24,WSW,242,1.0,5.0,90,0.00,,---,0.00,VWS V13.01,2013-01-02 05:35:00,
2013-01-01 23:40:00,9.1,6.8,30.24,WSW,241,0.0,5.0,90,0.00,,---,0.00,VWS V13.01,2013-01-02 05:40:00,
2013-01-01 23:46:00,9.2,6.9,30.24,WSW,242,3.0,5.0,90,0.00,,---,0.00,VWS V13.01,2013-01-02 05:46:00,
2013-01-01 23:51:00,9.2,6.9,30.24,SW,227,0.0,5.0,90,0.00,,---,0.00,VWS V13.01,2013-01-02 05:51:00,
2013-01-01 23:56:00,9.3,7.0,30.24,SW,227,2.0,5.0,90,0.00,,---,0.00,VWS V13.01,2013-01-02 05:56:00,